Weather past 2 weeks in Saint-Pierre, Saint Pierre and Miquelon

Now
29 °F

Low clouds.


Feels Like: 20 °F
Forecast: 31 / 37 °F
Wind: 10 mph from Southwest

Location: Saint-Pierre

Current Time: Jan 31, 2015 at 4:11:58 AM

Latest Report: Jan 31, 2015 at 4:00 AM


Visibility: 12 mi

Pressure: 29.91 "Hg

Humidity: 100%

Dew point: 29 °F

Location of Saint-PierreLocation

Historic Weather in Saint-Pierre — Graph

°F

Saint-Pierre temperature yesterday

Maximum temperature yesterday: 33 °F (at 3:00 AM)
Minimum temperature yesterday: 29 °F (at 8:00 AM)
Average temperature yesterday: 30 °F

Past Weeks' High & Low Weather Summary

 TemperatureHumidityPressure
High47 °F (Jan 25, 9:00 AM)100% (Jan 16, 11:00 AM)30.53 "Hg (Jan 16, 11:00 AM)
Low20 °F (Jan 18, 5:00 AM)64% (Jan 26, 4:00 PM)28.79 "Hg (Jan 25, 9:00 AM)
Average31 °F89%29.83 "Hg
* Reported Jan 16 3:00 AM — Jan 31 3:00 AM, Saint-Pierre, Weather by CustomWeather, © 2014

Note: Actual official high and low records may vary slightly from our data, if they occured in-between our weather recording intervals... More about our weather records

Advertising

Saint-Pierre weather history for previous 24 hours

 ConditionsComfort  
Time TempWeatherWind HumidityBarometerVisibility
3:00 AM
Jan 31
29 °FChilly.7 mph100%29.92 "Hg11 mi
2:00 AM30 °FLight snow. Low clouds.13 mph99%29.92 "Hg1 mi
1:00 AM28 °FChilly.2 mph98%29.87 "Hg37 mi
12:00 AM28 °FChilly.12 mph98%29.85 "Hg37 mi
11:00 PM
Jan 30
29 °FOvercast.8 mph98%29.85 "Hg37 mi
10:00 PM29 °FPassing clouds.9 mph98%29.84 "Hg37 mi
9:00 PM29 °FOvercast.12 mph98%29.81 "Hg37 mi
8:00 PM29 °FPassing clouds.10 mph99%29.79 "Hg9 mi
7:00 PM29 °FOvercast.14 mph99%29.75 "Hg9 mi
5:00 PM30 °FLow clouds.18 mph100%29.70 "Hg5 mi
4:00 PM30 °FPartly sunny.22 mph100%29.68 "Hg2 mi
3:00 PM30 °FLight snow. Low clouds.21 mph100%29.68 "Hg1 mi
2:00 PM30 °FLow clouds.24 mph100%29.70 "Hg3 mi
1:00 PM30 °FLight rain. Low clouds.29 mph100%29.72 "Hg2 mi
11:00 AM29 °FLight snow. Low clouds.29 mph100%29.82 "Hg2 mi
10:00 AM29 °FLight snow. Low clouds.29 mph100%29.84 "Hg2 mi
9:00 AM29 °FLight snow. Low clouds.29 mph100%29.88 "Hg1 mi
8:00 AM29 °FLight snow. Low clouds.25 mph100%29.92 "Hg1 mi
7:00 AM29 °FSnow. Low clouds.22 mph95%29.96 "Hg1 mi
5:00 AM31 °FOvercast.24 mph90%29.98 "Hg37 mi
4:00 AM32 °FOvercast.21 mph92%30.01 "Hg12 mi
Weather by CustomWeather, © 2014

See weather overviewHow to use our weather pages